FAD235 OERK-OEMA

Flight info

Callsign FAD235
Flight time N/A
Altitude 30000
Route OERK/15L IVONU Y216 ITSEP
Aircraft A320/M-SDE3FGHIRWY/LB1

Departure

Time N/A
Airport King Khalid International Airport (OERK)

Arrival

Time 2026-04-20 17:05
Airport Prince Mohammad Bin Abdulaziz Airport (OEMA)
Time Latitude Longitude Altitude Speed Heading
2026-04-20 16:13 24.93453 44.34818 29892 ft 398 kts 271°
2026-04-20 16:13 24.93645 44.31780 29884 ft 397 kts 271°
2026-04-20 16:13 24.93933 44.26741 29886 ft 396 kts 270°
2026-04-20 16:14 24.94258 44.20688 29882 ft 396 kts 270°
2026-04-20 16:14 24.94642 44.13654 29883 ft 395 kts 270°
2026-04-20 16:15 24.94925 44.08598 29880 ft 395 kts 270°
2026-04-20 16:15 24.95235 44.02548 29886 ft 394 kts 267°
2026-04-20 16:16 24.95029 43.96530 29859 ft 394 kts 266°
2026-04-20 16:16 24.94822 43.90532 29877 ft 394 kts 266°
2026-04-20 16:17 24.94607 43.84465 29885 ft 394 kts 266°
2026-04-20 16:17 24.94385 43.78435 29905 ft 394 kts 266°
2026-04-20 16:18 24.94156 43.72390 29897 ft 395 kts 266°
2026-04-20 16:18 24.93928 43.66348 29908 ft 395 kts 266°
2026-04-20 16:19 24.93702 43.60297 29915 ft 395 kts 266°
2026-04-20 16:19 24.93467 43.54237 29906 ft 396 kts 266°
2026-04-20 16:20 24.93237 43.48205 29910 ft 397 kts 266°
2026-04-20 16:20 24.93006 43.42123 29893 ft 398 kts 266°
2026-04-20 16:21 24.92767 43.36032 29917 ft 398 kts 266°
2026-04-20 16:21 24.92521 43.29949 29932 ft 397 kts 266°
2026-04-20 16:22 24.92275 43.23867 29941 ft 397 kts 266°
2026-04-20 16:22 24.92035 43.17783 29918 ft 398 kts 266°
2026-04-20 16:23 24.91785 43.11675 29916 ft 401 kts 266°
2026-04-20 16:23 24.91529 43.05540 29933 ft 401 kts 266°
2026-04-20 16:24 24.91273 42.99390 29942 ft 402 kts 265°
2026-04-20 16:24 24.91013 42.93236 29927 ft 402 kts 265°
2026-04-20 16:25 24.90750 42.87084 29928 ft 402 kts 265°
2026-04-20 16:25 24.90483 42.80930 29943 ft 401 kts 266°
2026-04-20 16:26 24.90221 42.74801 29954 ft 400 kts 266°
2026-04-20 16:26 24.89954 42.68689 29953 ft 399 kts 266°
2026-04-20 16:27 24.89682 42.62581 29945 ft 399 kts 266°
2026-04-20 16:27 24.89407 42.56524 29930 ft 399 kts 266°
2026-04-20 16:28 24.89131 42.50351 29948 ft 412 kts 266°
2026-04-20 16:28 24.88832 42.43945 29945 ft 423 kts 266°
2026-04-20 16:29 24.88529 42.37458 29941 ft 424 kts 265°
2026-04-20 16:29 24.87988 42.30995 29944 ft 424 kts 262°
2026-04-20 16:30 24.87163 42.24579 29938 ft 422 kts 261°
2026-04-20 16:30 24.86320 42.18194 29965 ft 420 kts 261°
2026-04-20 16:31 24.85929 42.15065 29935 ft 404 kts 261°
2026-04-20 16:31 24.85563 42.12035 29935 ft 397 kts 262°
2026-04-20 16:31 24.84860 42.06040 29927 ft 394 kts 262°
2026-04-20 16:32 24.84156 42.00063 29925 ft 393 kts 262°
2026-04-20 16:32 24.83440 41.94115 29923 ft 390 kts 262°
2026-04-20 16:33 24.82724 41.88203 29925 ft 390 kts 262°
2026-04-20 16:33 24.81990 41.82171 29924 ft 406 kts 262°
2026-04-20 16:34 24.81233 41.75960 29922 ft 411 kts 261°
2026-04-20 16:34 24.80481 41.69758 29923 ft 412 kts 261°
2026-04-20 16:35 24.79710 41.63470 29923 ft 412 kts 261°
2026-04-20 16:35 24.78945 41.57224 29923 ft 412 kts 261°
2026-04-20 16:36 24.78177 41.50980 29938 ft 411 kts 261°
2026-04-20 16:36 24.77424 41.44886 29924 ft 394 kts 261°
2026-04-20 16:37 24.76683 41.38970 29922 ft 389 kts 261°
2026-04-20 16:37 24.76316 41.36036 29755 ft 383 kts 261°
2026-04-20 16:37 24.75961 41.33186 29526 ft 369 kts 261°
2026-04-20 16:38 24.75619 41.30440 29253 ft 356 kts 261°
2026-04-20 16:38 24.75287 41.27783 28983 ft 345 kts 261°
2026-04-20 16:38 24.74964 41.25208 28686 ft 334 kts 261°
2026-04-20 16:38 24.74651 41.22711 28424 ft 324 kts 261°
2026-04-20 16:39 24.74346 41.20291 28164 ft 315 kts 261°
2026-04-20 16:39 24.74051 41.17942 27908 ft 306 kts 261°
2026-04-20 16:39 24.73763 41.15657 27656 ft 298 kts 261°
2026-04-20 16:39 24.73482 41.13425 27404 ft 291 kts 261°
2026-04-20 16:40 24.73208 41.11241 27172 ft 287 kts 261°
2026-04-20 16:40 24.72937 41.09078 26925 ft 285 kts 261°
2026-04-20 16:40 24.72664 41.06923 26679 ft 284 kts 261°
2026-04-20 16:40 24.72393 41.04777 26426 ft 283 kts 261°
2026-04-20 16:41 24.72121 41.02630 26187 ft 282 kts 260°
2026-04-20 16:41 24.71849 41.00490 25953 ft 282 kts 260°
2026-04-20 16:41 24.71579 40.98357 25713 ft 282 kts 260°
2026-04-20 16:41 24.71310 40.96225 25472 ft 281 kts 260°
2026-04-20 16:42 24.71039 40.94094 25090 ft 282 kts 260°
2026-04-20 16:42 24.70766 40.91946 24537 ft 286 kts 260°
2026-04-20 16:42 24.70491 40.89782 24064 ft 286 kts 259°
2026-04-20 16:42 24.70214 40.87616 23690 ft 284 kts 259°
2026-04-20 16:43 24.69944 40.85499 23285 ft 282 kts 259°
2026-04-20 16:43 24.69668 40.83368 22843 ft 281 kts 259°
2026-04-20 16:43 24.69395 40.81245 22421 ft 280 kts 259°
2026-04-20 16:43 24.69124 40.79134 22005 ft 278 kts 259°
2026-04-20 16:44 24.68854 40.77037 21625 ft 277 kts 259°
2026-04-20 16:44 24.68585 40.74946 21245 ft 275 kts 259°
2026-04-20 16:44 24.68317 40.72866 20834 ft 275 kts 259°
2026-04-20 16:44 24.68048 40.70785 20449 ft 274 kts 259°
2026-04-20 16:45 24.67778 40.68714 20076 ft 273 kts 259°
2026-04-20 16:45 24.67510 40.66652 19728 ft 272 kts 259°
2026-04-20 16:45 24.67242 40.64597 19373 ft 271 kts 259°
2026-04-20 16:45 24.66976 40.62547 19040 ft 270 kts 259°
2026-04-20 16:46 24.66711 40.60515 18587 ft 267 kts 259°
2026-04-20 16:46 24.66449 40.58501 17982 ft 266 kts 259°
2026-04-20 16:46 24.66191 40.56496 17331 ft 264 kts 260°
2026-04-20 16:46 24.65935 40.54501 16714 ft 263 kts 260°
2026-04-20 16:47 24.65677 40.52513 16112 ft 262 kts 260°
2026-04-20 16:47 24.65418 40.50534 15532 ft 261 kts 260°
2026-04-20 16:47 24.65160 40.48563 14953 ft 260 kts 259°
2026-04-20 16:47 24.64902 40.46593 14409 ft 259 kts 260°
2026-04-20 16:48 24.64646 40.44642 13893 ft 257 kts 260°
2026-04-20 16:48 24.64390 40.42700 13321 ft 256 kts 260°
2026-04-20 16:48 24.64137 40.40780 12864 ft 250 kts 260°
2026-04-20 16:48 24.63893 40.38912 12437 ft 244 kts 260°
2026-04-20 16:49 24.63654 40.37088 11988 ft 239 kts 260°
2026-04-20 16:49 24.63418 40.35285 11853 ft 242 kts 259°
2026-04-20 16:49 24.63174 40.33435 11801 ft 246 kts 259°
2026-04-20 16:49 24.62929 40.31574 11733 ft 246 kts 259°
2026-04-20 16:50 24.62687 40.29737 11643 ft 245 kts 259°
2026-04-20 16:50 24.62441 40.27859 11553 ft 245 kts 260°
2026-04-20 16:50 24.62198 40.26007 11464 ft 245 kts 259°
2026-04-20 16:50 24.61957 40.24180 11380 ft 245 kts 259°
2026-04-20 16:51 24.61711 40.22325 11285 ft 245 kts 259°
2026-04-20 16:51 24.61466 40.20478 11190 ft 245 kts 259°
2026-04-20 16:51 24.61220 40.18622 11094 ft 246 kts 259°
2026-04-20 16:51 24.60973 40.16762 11008 ft 246 kts 259°
2026-04-20 16:52 24.60725 40.14900 10919 ft 246 kts 259°
2026-04-20 16:52 24.60477 40.13045 10824 ft 245 kts 259°
2026-04-20 16:52 24.60228 40.11189 10738 ft 245 kts 259°
2026-04-20 16:52 24.59981 40.09341 10646 ft 244 kts 259°
2026-04-20 16:53 24.59736 40.07497 10557 ft 244 kts 259°
2026-04-20 16:53 24.59491 40.05646 10465 ft 244 kts 259°
2026-04-20 16:53 24.59248 40.03802 10373 ft 244 kts 259°
2026-04-20 16:53 24.59013 40.01957 10286 ft 245 kts 260°
2026-04-20 16:54 24.58780 40.00105 10194 ft 245 kts 260°
2026-04-20 16:54 24.58626 39.98250 10012 ft 245 kts 271°
2026-04-20 16:54 24.59108 39.96468 9874 ft 245 kts 295°
2026-04-20 16:54 24.60224 39.95055 9753 ft 245 kts 310°
2026-04-20 16:55 24.61445 39.93795 9627 ft 237 kts 310°
2026-04-20 16:55 24.62636 39.92569 9499 ft 233 kts 309°
2026-04-20 16:55 24.63812 39.91357 9375 ft 232 kts 309°
2026-04-20 16:55 24.64990 39.90142 9250 ft 231 kts 309°
2026-04-20 16:56 24.66164 39.88929 9124 ft 231 kts 309°
2026-04-20 16:56 24.67336 39.87720 8999 ft 231 kts 309°
2026-04-20 16:56 24.68504 39.86510 8872 ft 231 kts 309°
2026-04-20 16:56 24.69672 39.85302 8752 ft 231 kts 310°
2026-04-20 16:57 24.70841 39.84092 8627 ft 230 kts 310°
2026-04-20 16:57 24.71998 39.82896 8500 ft 227 kts 310°
2026-04-20 16:57 24.73143 39.81710 8363 ft 226 kts 309°
2026-04-20 16:57 24.74283 39.80528 8059 ft 225 kts 310°
2026-04-20 16:58 24.75414 39.79356 7764 ft 222 kts 309°
2026-04-20 16:58 24.76535 39.78194 7452 ft 220 kts 310°
2026-04-20 16:58 24.77601 39.77009 7232 ft 214 kts 300°
2026-04-20 16:58 24.78178 39.75564 7044 ft 203 kts 275°
2026-04-20 16:59 24.78107 39.74045 6809 ft 200 kts 252°
2026-04-20 16:59 24.77447 39.72734 6634 ft 191 kts 236°
2026-04-20 16:59 24.76684 39.71570 6412 ft 185 kts 236°
2026-04-20 16:59 24.75943 39.70429 6171 ft 185 kts 237°
2026-04-20 17:00 24.74480 39.68170 5701 ft 174 kts 235°
2026-04-20 17:00 24.73575 39.67353 5553 ft 165 kts 207°
2026-04-20 17:00 24.72418 39.67182 5157 ft 178 kts 177°
2026-04-20 17:01 24.71600 39.67354 4900 ft 181 kts 175°
2026-04-20 17:01 24.69970 39.67707 4532 ft 175 kts 175°
2026-04-20 17:01 24.69187 39.67875 4399 ft 172 kts 175°
2026-04-20 17:01 24.68019 39.68124 4162 ft 169 kts 173°
2026-04-20 17:02 24.66895 39.68365 3944 ft 157 kts 175°
2026-04-20 17:02 24.65532 39.68655 3685 ft 147 kts 174°
2026-04-20 17:02 24.64858 39.68798 3560 ft 145 kts 175°
2026-04-20 17:02 24.63875 39.69006 3375 ft 144 kts 175°
2026-04-20 17:03 24.62875 39.69217 3195 ft 149 kts 175°
2026-04-20 17:03 24.61858 39.69433 3019 ft 149 kts 173°
2026-04-20 17:03 24.60845 39.69648 2772 ft 147 kts 174°
2026-04-20 17:03 24.59855 39.69866 2563 ft 147 kts 174°
2026-04-20 17:04 24.58844 39.70081 2407 ft 146 kts 175°
2026-04-20 17:04 24.57842 39.70290 2222 ft 145 kts 175°
2026-04-20 17:04 24.56865 39.70499 2126 ft 142 kts 174°
2026-04-20 17:04 24.56006 39.70674 2113 ft 105 kts 169°
2026-04-20 17:05 24.55460 39.70799 2110 ft 54 kts 165°
2026-04-20 17:05 24.55215 39.70971 2109 ft 21 kts 119°
2026-04-20 17:05 24.55228 39.71096 2107 ft 10 kts 81°
2026-04-20 17:05 24.55239 39.71173 2107 ft 10 kts 81°
2026-04-20 17:06 24.55238 39.71245 2105 ft 9 kts 94°
2026-04-20 17:06 24.55247 39.71310 2105 ft 8 kts 80°
2026-04-20 17:06 24.55250 39.71328 2105 ft 0 kts 79°